STARLINK-32153, 60330

Orbit data source: Space-Track

STARLINK-32153, 60330 is a payload satellite owned by SpaceX/Seattle (US) in LEO that was launched on Fri, 02 Aug 2024 UTC via an FALCON 9 launch vehicle from the Air Force Eastern Test Range (AFETR). Payload-class satellites include a variety of spacecraft equipped with specific instruments for various scientific and technological missions. These include communications satellites like Starlink; space stations such as the ISS; scientific satellites like the Hubble; Earth observation satellites from companies like Planet Labs, Umbra, and HawkEye 360; GPS; miniature CubeSats for education and research; and military/defense satellites.

Loading next visibility...
Identifier
60330, 2024-136B
Orbit
LEO
Last TLE update
12 hours ago
Origin
Manufacturer
SpaceX/Seattle
Mission
Operational Commercial Communications
Bus & Motor
STARLINK V2M, Unknown motor
Mass
730 kg wet, ~700 kg dry
Launch date (UTC)
2024-08-02 (9 months ago)
Launch vehicle
FALCON 9
Launch site
Air Force Eastern Test Range (AFETR)
Object type
Payload
Rocket body
Debris
Shape & HBR
Box + 2 Pan, 29 m
Radar Cross Section
33.884 m², Large (>1 m²)

Expand to show TLE details & history

TLE from 12 hours ago
0 STARLINK-32153
1 60330U 24136B   25133.00261670  .00000846  00000-0  40684-4 0  9998
2 60330  53.1609  32.6397 0001144  60.7509 299.3606 15.30188464 44682
Epoch: 2025-05-13T00:03Z
Definitive object data (Epoch: 2025-05-13T00:03:46.082Z)
Latitude
-0.00004°
Longitude
160.69006°
Altitude
475.765 km
Speed
7.629 km/s
True Right ascension
02h 10m 33s
True Declination
0° 00' 00"
Sunlit
Object was in daylight at TLE epoch
Visualization TLE readout
Latitude
-17.9887°
Longitude
144.28219°
Altitude
480.094 km
Speed
7.626 km/s
Apparent Right ascension
04h 07m 21s
Apparent Declination
-45° 30' 35"
Sunlit
Object is in daylight
Visualization observer readout
Local Sidereal Time
20:55:53
Azimuth
121.529° SE
Elevation
-38.508°
Doppler factor
1
Orbital elements
Apogee altitude
476.29 km
Perigee altitude
474.722 km
Semi-major axis
6,853.643 km
Eccentricity
0.0001144
Inclination
53.1609°
RAAN
32.6397°
Arg. of periapsis
60.7509°
True anomaly
299.34917°
Mean anomaly
299.3606°
Eccentric anomaly
299.35489°
Mean motion
3.82526 °/min
BSTAR
0.000040684
Orbital period
94.11 mins
Loading maneuver chart data...
Loading SW <> Apogee altitude chart data...
Loading historical data...
Loading historical data...
Loading historical data...
Loading historical data...
Loading historical data...
Loading historical data...
Loading historical data...

STARLINK-32153 Visibility forecast

Observer location: undefined°, undefined°

Span
Click to sort rows by Start time (UTC) header in descending order
Start Az.
Max El. time (UTC)
Max El. Az.
Max El.
End time (UTC)
End Az.
5 mins2025-05-13 19:01:17.880Z183.738° SSW2025-05-13 19:04:17.880Z126.979° SE21.791°2025-05-13 19:06:17.880Z85.22° E
5 mins2025-05-13 20:40:17.880Z272.296° WNW2025-05-13 20:42:17.880Z343.864° N32.416°2025-05-13 20:45:17.880Z37.713° NE
4 mins2025-05-14 01:37:17.880Z349.806° N2025-05-14 01:39:17.880Z41.585° NE23.13°2025-05-14 01:41:17.880Z80.291° E
5 mins2025-05-14 03:15:17.880Z281.997° WNW2025-05-14 03:17:17.880Z202.852° SW34.199°2025-05-14 03:20:17.880Z152.38° SSE
|